Flag for Sudan Weather past 2 weeks in Khartoum, Sudan

Now
N/A

Clear.


Feels Like: N/A
Forecast: 83 / 109 °F
Wind: 5 mph from Southwest

Location: Khartoum Airport


UV Index: 10 (Very high)

Visibility: 10 mi


Pressure: 29.74 "Hg

Humidity: N/A

Dew point: N/A

Location of KhartoumLocation

Historic Weather in Khartoum

°F

Khartoum temperature yesterday

Maximum temperature yesterday: 104 °F (at 3:00 PM)
Minimum temperature yesterday: 90 °F (at 3:00 AM)
Average temperature yesterday: 96 °F

Past Weeks' High & Low Weather Summary

 TemperatureHumidityPressure
High109 °F (Apr 9, 4:00 PM)43% (Apr 19, 3:00 AM)29.92 "Hg (Apr 19, 3:00 AM)
Low81 °F (Apr 12, 7:00 AM)4% (Apr 15, 1:00 PM)29.56 "Hg (Apr 20, 5:00 PM)
Average95 °F17%29.75 "Hg
* Reported Apr 9 1:00 AM — Apr 24 1:30 AM, Khartoum, Weather by CustomWeather, © 2014

Note: Actual official high and low records may vary slightly from our data, if they occured in-between our weather recording intervals... More about our weather records

Advertising

Historic Weather Conditions — Data for Previous 24 hours

 ConditionsComfort  
Time TempWeatherWind HumidityBarometerVisibility
1:30 AM
Apr 24
N/AClear.5 mphN/A29.74 "Hg10 mi
1:00 AM95 °FClear.No wind25%29.74 "Hg10 mi
12:30 AMN/AClear.5 mphN/A29.77 "Hg10 mi
11:30 PM
Apr 23
N/AHaze.3 mphN/A29.77 "Hg4 mi
11:00 PM97 °FExtremely hot.3 mph22%29.77 "Hg4 mi
10:30 PMN/AHaze.3 mphN/A29.77 "Hg4 mi
10:00 PM99 °FHaze.3 mph21%29.77 "Hg4 mi
9:30 PMN/AHaze.3 mphN/A29.77 "Hg2 mi
9:00 PM99 °FHaze.3 mph21%29.77 "HgN/A
8:30 PMN/AHaze.5 mphN/A29.74 "Hg2 mi
8:00 PM100 °FHaze.5 mph18%29.74 "Hg4 mi
7:30 PMN/AHaze.5 mphN/A29.74 "Hg4 mi
7:00 PM102 °FHaze.7 mph18%29.74 "Hg4 mi
6:30 PMN/AHaze.7 mphN/A29.74 "Hg4 mi
6:00 PM102 °FHaze.5 mph16%29.74 "Hg4 mi
5:30 PMN/AHaze.3 mphN/A29.71 "Hg4 mi
5:00 PM104 °FHaze.3 mph17%29.74 "Hg4 mi
4:30 PMN/AHaze.2 mphN/A29.74 "Hg4 mi
3:30 PMN/AHaze.5 mphN/A29.77 "Hg2 mi
3:00 PM104 °FHaze.5 mph17%29.77 "Hg2 mi
2:30 PMN/AHaze.5 mphN/A29.77 "Hg2 mi
2:00 PM102 °FExtremely hot.9 mph18%29.80 "Hg2 mi
1:30 PMN/ASandstorm.9 mphN/A29.80 "Hg2 mi
1:00 PM100 °FSandstorm.10 mph21%29.80 "Hg2 mi
12:30 PMN/ASandstorm.12 mphN/A29.83 "Hg2 mi
12:00 PM99 °FSandstorm.15 mph24%29.83 "Hg2 mi
11:30 AMN/ASandstorm.17 mphN/A29.86 "Hg1 mi
11:00 AM97 °FSandstorm.17 mph25%29.86 "Hg1 mi
10:30 AMN/ASandstorm.18 mphN/A29.86 "Hg1 mi
10:00 AM95 °FExtremely hot.9 mph25%29.86 "Hg1 mi
9:30 AMN/AHaze.10 mphN/A29.86 "Hg1 mi
9:00 AM91 °FHaze.6 mph30%29.86 "Hg1 mi
8:30 AMN/A7 mphN/A29.83 "Hg1 mi
8:00 AM90 °FHaze.6 mph29%29.83 "Hg1 mi
7:30 AMN/AHaze.6 mphN/A29.83 "Hg1 mi
6:00 AM90 °FHot.12 mph29%29.80 "Hg5 mi
5:30 AMN/A12 mphN/A29.80 "Hg5 mi
5:00 AM90 °FHot.No wind29%29.77 "Hg5 mi
4:30 AMN/ANo windN/A29.77 "Hg5 mi
4:00 AM90 °FHot.No wind29%29.77 "Hg5 mi
3:30 AMN/A5 mphN/A29.77 "Hg5 mi
3:00 AM90 °FHaze.9 mph29%29.77 "Hg5 mi
2:30 AMN/AHaze.8 mphN/A29.77 "Hg5 mi
2:00 AM91 °FHot.6 mph26%29.77 "Hg5 mi
Weather by CustomWeather, © 2014

See weather overview